Portada
METAR-TAF:

METAR-TAF

Aeropuertos :

Valencia, España

Helipuerto Bétera-Valencia

latitud: 39-37-26N, longitud: 0-28-26W, altitud: 127 m

Observación

El informe se hizo hace 24 minutos, a las 18:00 UTC
Viento 3 kt del este-sureste, variando entre este y sur-sureste
Temperatura 29°C
Humedad 45%
Presión 1017 hPa
Visibilidad 10 km o más
sin nubes por debajo de 1500 m y sin presencia de cumulonimbus.

METAR: LEBT 221800Z AUTO 12003KT 080V150 CAVOK 29/16 Q1017

Hora: 20:24 (18:24 UTC)


TAF: falta

Observaciones y pronósticos meteorológicos de más de 4000 aeropuertos (mensajes METAR y TAF).

Los puntos amarillos y rojos representan las estaciones disponibles.

Ponga el ratón en el punto deseado para ver el nombre de la estación.

Haga clic para ver las observaciones y los pronósticos meteorológicos.

Para cambiar el mapa : haga clic en los botones verdes con una cruz de color negro para hacer un zoom, en el botón verde con un guión para alejar o en las flechas verdes para mapas adyacentes.


METAR-TAF: